Regional Weather Roundup
Issued by NWS Midland/Odessa, TX

Skip options and go directly to product.
Home | Oldest Version | Next Version | Current Version | All | Text Only | Save Text | Print | Product List | Glossary On

Skip product version selection by date and time.   
525
ASUS44 KMAF 260310
RWRMAF
MIDLAND AREA WEATHER ROUNDUP
NATIONAL WEATHER SERVICE MIDLAND TX
1000 PM CDT SAT JUN 25 2016

...IN SOUTHWEST TEXAS AND SOUTHEAST NEW MEXICO...

CITY           SKY/WX    TMP DP  RH WIND       PRES   REMARKS
ALPINE         CLOUDY    75  54  47 SW6       30.14R
ANDREWS        CLOUDY    84  60  43 S7        30.03R
ARTESIA        CLOUDY    81  63  54 E5        29.99S
BIG SPRING     PTCLDY    82  61  49 SE14      30.02R
CARLSBAD       TSTM      78  63  59 W31G39    29.98R
DRYDEN           N/A     81  68  64 E23G36    29.96R
FORT STOCKTON  CLOUDY    84  62  47 SE16G26   29.98R
GUAD PASS      CLOUDY    72  52  49 SW14        N/A
HOBBS          CLEAR     84  55  37 SE13      30.04R
MARFA          CLOUDY   N/A N/A N/A MISG        N/A
MIDLAND AIRPK  CLEAR     87  60  40 S10       30.01R
MIDLAND INTL   CLEAR     87  61  41 S17       30.00R
ODESSA         CLEAR     86  60  41 S17       30.01R
PECOS          CLEAR     82  64  54 SE9       29.94R
PRESIDIO       MOCLDY    85  58  40 NE9       30.00R
SEMINOLE       CLEAR     85  56  37 SE13G18   30.03S
SNYDER           N/A     80  69  68 SE13      30.01R
WINK           CLEAR     87  60  40 SE15      29.95R
$$
...OTHER STATIONS IN TEXAS...

CITY           SKY/WX    TMP DP  RH WIND       PRES   REMARKS
ABILENE        MOCLDY    80  70  71 SE17      30.00S
AMARILLO       CLEAR     82  57  42 S17       30.06R
AUSTIN         MOCLDY    76  75  97 CALM      30.02S
BROWNSVILLE    MOCLDY    82  76  81 SE10      30.00R
CORPUS CHRISTI MOCLDY    81  77  88 SE8       30.00R
DALLAS FTW     MOCLDY    85  71  63 S14       29.99S
DEL RIO        CLOUDY    79  74  84 E13G23    29.92S
EL PASO        CLOUDY    83  49  30 SE15G30   30.00R
HOUSTON INT    MOCLDY    83  73  72 S5        30.03R
LUBBOCK        MOCLDY    79  63  57 S17       30.05R
SAN ANGELO     MOCLDY    82  62  50 S10       29.97S
SAN ANTONIO    CLOUDY    76  73  91 E3        30.03R
WACO           CLOUDY    81  73  76 S7        30.01S
WICHITA FALLS  NOT AVBL
$$
...OTHER LOCATIONS IN NEW MEXICO...

CITY           SKY/WX    TMP DP  RH WIND       PRES   REMARKS
ALAMAGORDO     PTCLDY    81  50  34 CALM      30.03R
ALBUQUERQUE    CLOUDY    83  46  27 E12       30.10R
CANNON AFB     CLOUDY    77  57  49 N17       30.12R
CLOVIS         CLOUDY    79  54  41 N17       30.12R
HOLLOMAN AFB   CLOUDY    83  51  33 W7        30.03R
ROSWELL        CLOUDY    75  61  61 NE9       30.00R
RUIDOSO          N/A     72  41  33 CALM      30.27R
SANTA FE       CLOUDY    71  48  43 SE13      30.20R
TRUTH OR CONSE CLOUDY    77  54  44 SE6       30.11R
TUCUMCARI      TSTM      68  64  87 SE8       30.13R
$$

USA.gov is the U.S. government's official web portal to all federal, state and local government web resources and services.